Regional Weather Roundup
Issued by NWS Goodland, KS

Home | Current Version | Previous Version | Text Only | Print | Product List | Glossary Off
Versions: 1 2 3 4 5 6 7 8 9 10 11 12 13 14 15 16 17 18 19 20 21 22 23 24 25 26 27 28 29 30 31 32 33 34 35 36 37 38 39 40 41 42 43 44 45 46 47 48 49 50

000
ASUS43 KGLD 250459
RWRGLD

GOODLAND FORECAST AREA HOURLY WEATHER ROUNDUP
NATIONAL WEATHER SERVICE GOODLAND KS
1000 PM MST SAT JAN 24 2015

...OFFICIAL OBSERVATIONS...

CITY           SKY/WX    TMP DP  RH WIND       PRES   REMARKS
GOODLAND KS    CLOUDY    43  30  60 NW30G39   30.00F
HILL CITY KS   CLOUDY    49  34  56 NW21G31   29.89R
IMPERIAL NEB   CLOUDY    43  28  55 NW26G36   29.97R
MCCOOK NEB     CLOUDY    45  33  63 NW25G35   29.90R
AKRON CO       MOCLDY    37  30  75 NW37G47   30.09F
BURLINGTON CO  CLOUDY    40  30  67 NW26G38   30.07R
LIMON CO       MOCLDY    35  28  75 N25G36    30.13R
$$

...UNOFFICIAL OBSERVATIONS...

CITY           SKY/WX    TMP DP  RH WIND       PRES   REMARKS
COLBY KS       MOCLDY    45  36  70 NW22G29   29.95S
GOVE KS          N/A     49  32  52 MISG        N/A
NORTON KS      CLEAR     48  32  53 W23G31    29.86R
SHARON SPRINGS   N/A     44  33  65 N25G35      N/A
KIT CARSON CO    N/A     41  29  63 MISG        N/A
YUMA CO          N/A     38  31  74 N29         N/A
$$



USA.gov is the U.S. government's official web portal to all federal, state and local government web resources and services.